www.pogodaiklimat.ru

Погода и климат >> Архив погоды >> Россия >> Якутия >> Усть-Миль


ПОГОДА в Усть-Миле

  • Прогноз погоды в Усть-Миле
  • Монитор погоды в Усть-Миле
  • Климат города

АРХИВ ПОГОДЫ в Усть-Миле

Время (UTC), дата Ветер
(напр.,м/с)
 
Видим.   Явления Облачность Т
(С)
Тd
(С)
f
(%)
Тe
(С)
Тes
(С)
Комфортность P
(гПа)
Po
(гПа)
Тmin
(С)
Tmax
(С)
R
(мм)
R24
(мм)
S
(см)
21 12.10 штиль 0 10 км слабый снег 10/0
[As op]
-5.0 -5.6 96 -6 -6 1018.3 995.3 -5.2 0.3 11
00 13.10 штиль 0 20 км слабый снег 10/0
[As op]
-4.2 -5.4 91 -5 -5 1018.8 996.0
03 13.10 штиль 0 20 км слабый ливневой снег 10/6 600 м
[Cb cap As op]
-1.8 -5.2 78 -3 -2 1018.5 995.8
06 13.10 З 1 50 км {ливн. осадки, снег} 10/8 600 м
[Cb cap As op]
-1.1 -5.4 73 -3 -3 1018.3 995.6
09 13.10 штиль 0 50 км 10/8 600 м
[Cb cap As op]
-2.7 -6.8 73 -4 -4 1018.7 995.9 -0.5 0.0
12 13.10 ЮЗ 1 10 км слабый снег 10/0
[As op]
-4.6 -7.0 83 -7 -7 1019.4 996.4
15 13.10 штиль 0 10 км слабый снег 10/0
[As op]
-4.9 -5.9 93 -6 -6 1019.2 996.2
18 13.10 штиль 0 50 км {снег} 10/0
[As op]
-7.7 -8.3 95 -9 -9 1019.4 996.2
21 13.10 штиль 0 50 км 10/0
[As op]
-5.7 -6.1 97 -7 -7 1018.8 995.8 -8.0 0.0 11
00 14.10 Ю 1 20 км слабый ливневой снег 10/8 600 м
[Cb cap As op]
-3.8 -4.0 99 -6 -6 1018.6 995.8
03 14.10 штиль 0 50 км {ливн. осадки} 10/10 600 м
[Cb cap]
-2.3 -4.2 87 -3 -3 1018.2 995.5
06 14.10 ЮЗ 2 20 км слабый ливневой снег 10/8 600 м
[Cb cap As op]
-1.7 -4.1 84 -6 -6 1018.3 995.6
09 14.10 ЮЗ 1 10 км слабый ливневой снег 10/8 600 м
[Cb cap As op]
-2.5 -3.8 91 -5 -5 1019.1 996.3 -1.5 0.3
12 14.10 штиль 0 10 км слабый ливневой снег 10/8 600 м
[Cb cap As op]
-3.2 -3.9 95 -4 -4 1019.2 996.4
15 14.10 З 1 10 км слабый ливневой снег 10/6 600 м
[Cb cap As op]
-4.0 -4.5 96 -6 -6 1019.4 996.6
18 14.10 СЗ 1 10 км слабый ливневой снег 10/8 600 м
[Cb cap As op]
-4.7 -5.3 96 -7 -7 1019.9 996.9
21 14.10 штиль 0 50 км {ливн. осадки} 10/6 600 м
[Cb cap Cs]
-6.6 -8.6 86 -7 -7 1020.5 997.3 -6.7 0.5 11
00 15.10 штиль 0 50 км {ливн. осадки} 3/0
[Ac trans]
-5.0 -9.0 73 -6 -5 1021.2 998.1
03 15.10 З 1 50 км 4/1 600 м
[Cb cap Ac trans]
-2.6 -9.1 61 -4 -2 1020.6 997.7
06 15.10 СЗ 1 50 км 6/3 600 м
[Cb cap Ac trans]
-2.0 -9.1 58 -3 -2 1020.5 997.7
09 15.10 штиль 0 50 км 10/4 600 м
[Cb cap Cs]
-3.2 -9.1 64 -4 -4 1020.9 998.0 -1.9
12 15.10 СЗ 1 50 км 10/3 600 м
[Cb cap As op]
-5.0 -9.0 73 -7 -7 1021.3 998.2
15 15.10 СЗ 1 50 км {ливн. осадки} 10/4 600 м
[Cb cap As op]
-5.9 -7.8 86 -8 -8 1021.6 998.5
18 15.10 Ю 1 50 км {ливн. осадки} 10/6 600 м
[Cb cap As op]
-5.3 -7.1 87 -8 -8 1022.1 999.0
21 15.10 штиль 0 50 км 10/0
[As op]
-6.7 -7.9 91 -8 -8 1022.8 999.5 -6.9 0.0 11
00 16.10 штиль 0 10 км слабый снег 10/0
[As op]
-5.3 -6.0 95 -6 -6 1023.6 1000.5
03 16.10 СЗ 2 20 км слабый ливневой снег 9/4 600 м
[Cb cap Ac trans]
-4.9 -7.3 83 -9 -8 1023.8 1000.7
06 16.10 З 2 20 км слабый ливневой снег 9/6 600 м
[Cb cap Ac trans]
-4.8 -8.0 78 -9 -9 1024.0 1000.9
09 16.10 СЗ 2 50 км {ливн. осадки} 10/8 600 м
[Cb cap As op]
-6.7 -11.3 70 -11 -11 1024.9 1001.6 -4.0 1
12 16.10 З 1 10 км слабый снег 10/0
[As op]
-8.5 -12.3 74 -11 -11 1025.3 1002.0
15 16.10 штиль 0 10 км слабый снег 10/0
[As op]
-10.1 -11.4 90 -10 -10 1025.1 1001.6
18 16.10 СЗ 1 50 км {снег} 10/0
[As op]
-9.8 -11.9 85 -12 -12 1025.4 1001.9
21 16.10 З 1 50 км 10/0
[As op]
-8.7 -11.6 79 -11 -11 1026.8 1003.2 -11.5 0.2 12
00 17.10 З 2 50 км 8/3 600 м
[Cb cap Ac trans]
-8.4 -12.1 75 -13 -13 1027.3 1003.7
03 17.10 З 1 20 км слабый ливневой снег 8/4 600 м
[Cb cap Ac trans]
-7.6 -12.1 70 -10 -9 1027.2 1003.8
06 17.10 СЗ 1 50 км {ливн. осадки} 9/4 600 м
[Cb cap Ac trans]
-6.3 -11.7 65 -8 -8 1027.5 1004.1
09 17.10 СЗ 1 50 км 9/3 600 м
[Cb cap Ac trans]
-6.9 -12.1 66 -9 -9 1027.8 1004.4 -6.2 0.0
12 17.10 СЗ 1 50 км 10/3 600 м
[Cb cap As op]
-7.9 -12.0 72 -10 -10 1027.5 1004.1
15 17.10 штиль 0 50 км 10/0
[Ac trans Cs]
-14.1 -15.4 90 -14 -14 1028.2 1004.3
18 17.10 С 1 50 км 10/0
[Ac trans Cs]
-13.5 -14.8 90 -16 -16 1028.1 1004.2
21 17.10 С 1 50 км 10/0
[Ac trans Cs]
-12.1 -13.4 90 -14 -14 1027.3 1003.5 -14.3 10
00 18.10 С 1 20 км слабый снег 10/0
[As op]
-11.5 -13.0 89 -14 -14 1027.3 1003.5
03 18.10 В 1 50 км {снег} 4/0
[Ac trans]
-6.4 -11.9 65 -8 -6 1025.0 1001.7
06 18.10 СВ 2 50 км {снег} 3/0
[Ci fib]
-4.6 -11.7 58 -8 -8 1023.4 1000.3
09 18.10 СВ 2 50 км 10/0
[Ci fib]
-6.9 -13.1 61 -11 -11 1022.8 999.5 -4.6 0.0
12 18.10 штиль 0 50 км ?/? -10.3 -14.1 74 -11 -11 1022.8 999.2
15 18.10 СВ 1 50 км ясно -12.3 -14.3 85 -15 -15 1022.7 998.9
18 18.10 С 1 50 км ясно -13.9 -15.6 87 -16 -16 1022.3 998.5
21 18.10 штиль 0 50 км ясно -16.2 -17.5 90 -16 -16 1022.5 998.3 -16.4 10
00 19.10 штиль 0 50 км 10/0
[Ac trans Cs]
-14.5 -15.8 90 -15 -14 1022.5 998.5
03 19.10 штиль 0 20 км слабый снег 10/0
[Ac trans Cs]
-8.7 -11.6 79 -9 -8 1022.4 998.9
06 19.10 штиль 0 20 км слабый снег 10/0
[Ac trans Cs]
-6.0 -9.5 76 -7 -6 1021.8 998.7
09 19.10 С 1 50 км {снег} 10/0
[As op]
-6.7 -10.0 77 -9 -9 1022.4 999.1 -5.5 0.0
12 19.10 штиль 0 50 км {снег} 10/0
[As op]
-8.7 -11.1 83 -9 -9 1024.5 1001.0
15 19.10 штиль 0 50 км 10/0
[As op]
-12.7 -14.0 90 -13 -13 1024.8 1001.0

 

Местоположение метеостанции Усть-Миль (Якутия, Россия): широта 59.63 долгота 133.00 высота над уровнем моря 179 м.

В архиве по умолчанию представлена погода в Усть-Миле за последнюю неделю. Архивные данные за месяц целиком и за предыдущие месяцы, начиная с января 2011 года, Вы можете получить, выбрав интересующий диапазон дат из раскрывающегося списка и нажав кнопку "Ввод!".

Внимание! Время в таблицах - всемирное. Для получения местного времени необходимо прибавить поправку, которая в Усть-Миле равна 9 ч.

Смотрите также архив погоды в соседних городах и на ближайших метеорологических станциях:

Погода в Усть-Мае (Якутия, Россия) (112 км)
Погода в Усть-Юдоме (Якутия, Россия) (129 км)
Погода в Амге (Якутия, Россия) (154 км)
Погода в Учуре (Якутия, Россия) (169 км)
Погода в Тегюльте (Якутия, Россия) (191 км)
Погода в Чюльбю (Якутия, Россия) (240 км)
Погода в Югоренке (Якутия, Россия) (259 км)
Погода в Чурапче (Якутия, Россия) (268 км)
Погода в Угино (Якутия, Россия) (280 км)
Погода в Охотском Перевозе (Якутия, Россия) (284 км)

Пояснения к столбцам:

Ветер - указаны скорость ветра в м/с - средняя за 10 мин, порывы в срок и между сроками (в фигурных скобках) и направление, откуда дует ветер: С - северный, СВ - северо-восточный, В - восточный, ЮВ - юго-восточный, Ю - южный, ЮЗ - юго-западный, З - западный, СЗ - северо-западный.
Видимость - горизонтальная дальность видимости в метрах или километрах. При видимости от 1 до 10 км при отсутствии осадков обычно наблюдается дымка, при ухудшении видимости до 1 км и менее - туман. В сухую погоду видимость может ухудшаться дымом, пылью или мглою.
Явления - указаны атмосферные явления, наблюдавшиеся в срок или в последний час перед сроком; фигурными скобками обозначены явления, наблюдавшиеся между сроками (за 1-3 часа до срока); квадратными скобками обозначены град или гололедные отложения с указанием их диаметра в мм.
Облачность - указаны через наклонную черту общая и нижняя облачность в баллах и высота нижней границы облаков в метрах; квадратными скобками обозначены формы облаков: Ci - перистые, Cs - перисто-слоистые, Cc - перисто-кучевые, Ac - высококучевые, As - высокослоистые, Sc - слоисто-кучевые, Ns - слоисто-дождевые, Cu - кучевые, Cb - кучево-дождевые. Подробнее классификацию облаков см. в Атласе облаков (PDF).
T - Температура воздуха - температура, измеренная на высоте 2 м над землей.
Td - Температура точки росы - температура, при понижении до которой содержащийся в воздухе водяной пар достигнет насыщения.
f - Относительная влажность воздуха - влажноcть воздуха, измеренная на высоте 2 м над землей.
Te - Эффективная температура - температура, которую ощущает одетый по сезону человек в тени. Характеристика душности погоды. При расчете учитывается влияние влажности воздуха и скорости ветра на теплоощущения человека.
Tes - Эффективная температура на солнце - температура, которую ощущает человек, с поправкой на солнечный нагрев. Характеристика знойности погоды. Зависит от высоты солнца над горизонтом, облачности и скорости ветра. Ночью, в пасмурную погоду, а также при ветре 12 м/с и более поправка равна нулю.
P - Атмосферное давление - приведенное к уровню моря атмосферное давление.
Po - Атмосферное давление - измеренное на уровне метеостанции атмосферное давление.
Tmin - Минимальная температура - минимум температуры воздуха на высоте 2 м над землей.
Tmax - Максимальная температура - максимум температуры воздуха на высоте 2 м над землей.
R - Количество осадков - Количество выпавших осадков за период времени, мм. При наведении курсора мыши на число - период времени, за который выпало указанное количество осадков.
R24 - Количество осадков - Количество выпавших осадков за 24 часа, мм.
S - Снежный покров - Высота снежного покрова, см. При наведении курсора мыши на число - состояние снежного покрова и степень покрытия местности в баллах.